Torna al catalogo

DMSP 5D-2 F11 DEB

AttivoPO
NORAD 29069·DEBRIS·🇺🇸 United States

Lanciato Nov 28, 1991 da Vandenberg Space Force Base

Loading…

Prossimi Passaggi (prossime 24 ore)

TLE

AggiornatoSource: Space-Track

Epoca: Sep 14, 2026, 11:03 UTC

1 29069U 91082BQ  26257.46082383  .00004075  00000-0  11687-2 0  9993
2 29069  98.9082 341.1580 0062514 109.3943 310.8848 14.44365480129668

Traccia DMSP 5D-2 F11 DEB in tempo reale con AllMySat

Download on the App Store